Location: St. Louis
(38.6270°N, 90.1994°W)
Time: 08:05:59
(UTC-06:00)

Altair - Pass Details

Date: 04 December 2021
Orbit: 1501 x 1683 km, 47.2° (Epoch: 17 January)

Event Time Altitude Azimuth Distance (km) Brightness Sun altitude
Rises 13:05:40 0° 194° (SSW) 4,839 11.4 26.6°
Reaches altitude 10° 13:09:25 10° 183° (S) 3,829 11.1 26.3°
Maximum altitude 13:17:12 28° 129° (SE) 2,629 9.2 25.8°
Drops below altitude 10° 13:24:44 10° 75° (ENE) 3,725 9.3 25.2°
Sets 13:28:17 0° 65° (ENE) 4,687 9.6 24.9°
